CW3186 Weather Reports


time (UTC)temp
C
wind
direction
speed
KPH
gust
KPH
rain 1hr
cm
rain 24hr
cm
rain mn
cm
humidity
%
barometer
mb
20260507060504 11 170 3.2 8.0 0.00 0.00 0.00 86 1021.4
20260507060028 11 178 3.2 8.0 0.00 0.00 0.00 85 1021.4
20260507055507 12 183 1.6 6.4 0.00 0.00 0.00 85 1021.4
20260507055007 12 147 1.6 6.4 0.00 0.00 0.00 85 1021.4
20260507054503 12 180 3.2 6.4 0.00 0.00 0.00 85 1021.4
20260507054004 12 173 0.0 8.0 0.00 0.00 0.00 85 1021.5
20260507053504 12 148 1.6 8.0 0.00 0.00 0.00 84 1021.5
20260507053023 12 159 1.6 8.0 0.00 0.00 0.00 84 1021.5
20260507052504 12 183 0.0 8.0 0.00 0.00 0.00 84 1021.5
20260507052003 12 183 0.0 8.0 0.00 0.00 0.00 84 1021.5
20260507051508 12 167 0.0 4.8 0.00 0.00 0.00 84 1021.5
20260507051007 12 167 0.0 8.0 0.00 0.00 0.00 83 1021.5
20260507050506 12 123 0.0 8.0 0.00 0.00 0.00 83 1021.4
20260507050027 12 171 3.2 6.4 0.00 0.00 0.00 83 1021.4
20260507045505 12 311 0.0 1.6 0.00 0.00 0.00 82 1021.3
20260507045006 12 171 0.0 1.6 0.00 0.00 0.00 82 1021.3
20260507044534 12 171 0.0 8.0 0.00 0.00 0.00 82 1021.4
20260507044011 12 171 1.6 8.0 0.00 0.00 0.00 82 1021.5
20260507043507 12 212 1.6 8.0 0.00 0.00 0.00 82 1021.4
20260507043006 12 182 1.6 3.2 0.00 0.00 0.00 81 1021.4
20260507042507 12 150 0.0 3.2 0.00 0.00 0.00 81 1021.3
20260507042003 12 150 0.0 3.2 0.00 0.00 0.00 81 1021.4
20260507041507 12 132 0.0 3.2 0.00 0.00 0.00 81 1021.3
20260507041003 12 220 0.0 3.2 0.00 0.00 0.00 81 1021.3
20260507040504 12 220 0.0 1.6 0.00 0.00 0.00 81 1021.3
20260507040014 12 220 0.0 3.2 0.00 0.00 0.00 80 1021.3
20260507035507 12 220 0.0 3.2 0.00 0.00 0.00 80 1021.3
20260507035007 13 220 0.0 3.2 0.00 0.00 0.00 80 1021.2
20260507034519 13 220 0.0 3.2 0.00 0.00 0.00 80 1021.2
20260507034007 13 220 0.0 3.2 0.00 0.00 0.00 80 1021.2
20260507033507 13 220 0.0 3.2 0.00 0.00 0.00 80 1021.1
20260507033020 13 171 0.0 3.2 0.00 0.00 0.00 80 1021.1
20260507032508 13 157 0.0 3.2 0.00 0.00 0.00 79 1021.1
20260507032011 13 241 0.0 3.2 0.00 0.00 0.00 79 1021.1
20260507031505 13 264 0.0 3.2 0.00 0.00 0.00 79 1021.0
20260507031003 13 227 0.0 4.8 0.00 0.00 0.00 79 1021.0
20260507030505 13 261 1.6 4.8 0.00 0.00 0.00 78 1021.0
20260507030014 13 209 0.0 3.2 0.00 0.00 0.00 79 1021.0
20260507025504 13 209 0.0 3.2 0.00 0.00 0.00 79 1020.9
20260507025004 13 209 0.0 3.2 0.00 0.00 0.00 78 1020.9
20260507024518 13 252 0.0 3.2 0.00 0.00 0.00 78 1020.9
20260507024006 13 208 0.0 8.0 0.00 0.00 0.00 78 1020.9
20260507023505 13 196 0.0 8.0 0.00 0.00 0.00 78 1020.8
20260507023020 13 153 1.6 6.4 0.00 0.00 0.00 78 1020.8
20260507022507 13 146 0.0 4.8 0.00 0.00 0.00 78 1020.7
20260507022011 13 266 0.0 4.8 0.00 0.00 0.00 78 1020.8
20260507021525 13 273 0.0 4.8 0.00 0.00 0.00 77 1020.7
20260507021010 13 229 1.6 6.4 0.00 0.00 0.00 77 1020.7
20260507020504 13 205 1.6 6.4 0.00 0.00 0.00 77 1020.7
20260507020009 13 281 0.0 6.4 0.00 0.00 0.00 77 1020.7
20260507015504 13 255 1.6 6.4 0.00 0.00 0.00 77 1020.7
20260507015007 13 211 1.6 4.8 0.00 0.00 0.00 77 1020.7
20260507014514 13 208 0.0 4.8 0.00 0.00 0.00 77 1020.7
20260507014003 13 190 0.0 3.2 0.00 0.00 0.00 77 1020.7
20260507013504 13 173 0.0 6.4 0.00 0.00 0.00 78 1020.7
20260507013017 13 207 1.6 6.4 0.00 0.00 0.00 78 1020.8
20260507012511 13 169 0.0 4.8 0.00 0.00 0.00 78 1020.8
20260507012007 13 165 1.6 3.2 0.00 0.00 0.00 78 1020.8
20260507011528 13 201 0.0 3.2 0.00 0.00 0.00 78 1020.8
20260507011012 13 189 1.6 6.4 0.00 0.00 0.00 79 1020.8
20260507010509 13 144 0.0 6.4 0.00 0.00 0.00 79 1020.8
20260507010023 13 192 1.6 9.7 0.00 0.00 0.00 79 1020.9
20260507005513 13 113 3.2 14.5 0.00 0.00 0.00 78 1020.9
20260507005008 13 109 0.0 14.5 0.00 0.00 0.00 78 1021.0
20260507004512 13 296 1.6 11.3 0.00 0.00 0.00 78 1020.9
20260507004007 13 103 1.6 11.3 0.00 0.00 0.00 78 1020.9
20260507003511 13 184 1.6 11.3 0.00 0.00 0.00 77 1020.9
20260507003017 13 167 3.2 11.3 0.00 0.00 0.00 76 1020.9
20260507002506 13 309 1.6 8.0 0.00 0.00 0.00 76 1020.9
20260507002009 13 123 1.6 9.7 0.00 0.00 0.00 76 1020.9
20260507001523 13 202 3.2 8.0 0.00 0.00 0.00 75 1020.9
20260507001006 13 115 1.6 6.4 0.00 0.00 0.00 76 1020.9
20260507000507 13 192 0.0 6.4 0.00 0.00 0.00 76 1020.9
20260507000027 13 192 3.2 6.4 0.00 0.00 0.00 75 1020.9
20260506235509 13 188 1.6 8.0 0.00 0.00 0.00 75 1020.9
20260506235008 13 150 1.6 8.0 0.00 0.00 0.00 75 1020.9
20260506234525 14 189 1.6 6.4 0.00 0.00 0.00 75 1021.0
20260506234010 14 223 1.6 14.5 0.00 0.00 0.00 75 1020.9
20260506233505 14 289 3.2 14.5 0.00 0.00 0.00 75 1021.0
20260506233012 13 302 1.6 14.5 0.00 0.00 0.00 75 1020.9
20260506232506 13 192 3.2 14.5 0.00 0.00 0.00 74 1020.9
20260506232008 13 229 1.6 8.0 0.00 0.00 0.00 75 1021.0
20260506231519 13 266 1.6 12.9 0.00 0.00 0.00 75 1021.0
20260506231008 13 210 3.2 12.9 0.00 0.00 0.00 74 1020.9
20260506230505 13 283 1.6 9.7 0.00 0.00 0.00 74 1021.0
20260506230023 14 202 4.8 11.3 0.00 0.00 0.00 73 1021.0
20260506225507 14 197 1.6 11.3 0.00 0.00 0.00 73 1021.0
20260506225008 14 293 3.2 11.3 0.00 0.00 0.00 72 1021.0
20260506224524 14 214 1.6 11.3 0.00 0.00 0.00 73 1021.0
20260506224008 14 198 1.6 14.5 0.00 0.00 0.00 71 1021.0
20260506223508 15 59 1.6 14.5 0.00 0.00 0.00 71 1021.0
20260506223026 15 268 1.6 11.3 0.00 0.00 0.00 70 1021.0
20260506222505 15 15 1.6 11.3 0.00 0.00 0.00 71 1021.0
20260506222006 15 301 0.0 11.3 0.00 0.00 0.00 71 1021.1
20260506221515 14 101 1.6 11.3 0.00 0.00 0.00 71 1021.1
20260506221011 14 171 3.2 11.3 0.00 0.00 0.00 72 1021.2
20260506220503 14 145 3.2 11.3 0.00 0.00 0.00 71 1021.1
20260506220005 14 204 1.6 9.7 0.00 0.00 0.00 71 1021.3
20260506215503 14 55 1.6 9.7 0.00 0.00 0.00 71 1021.2
20260506215003 14 115 3.2 9.7 0.00 0.00 0.00 71 1021.2
20260506214506 14 209 4.8 9.7 0.00 0.00 0.00 70 1021.1
20260506214003 14 248 1.6 12.9 0.00 0.00 0.00 72 1021.3
20260506213503 14 279 1.6 12.9 0.00 0.00 0.00 73 1021.2
20260506213014 14 292 3.2 11.3 0.00 0.00 0.00 73 1021.2
20260506212502 14 195 3.2 11.3 0.00 0.00 0.00 72 1021.3
20260506212006 14 276 1.6 9.7 0.00 0.00 0.00 74 1021.3
20260506211514 14 178 3.2 11.3 0.00 0.00 0.00 73 1021.3
20260506211007 14 299 1.6 11.3 0.00 0.00 0.00 73 1021.3
20260506210504 14 202 1.6 11.3 0.00 0.00 0.00 73 1021.2
20260506210021 14 276 3.2 8.0 0.00 0.00 0.00 72 1021.3
20260506205507 14 282 0.0 12.9 0.00 0.00 0.00 73 1021.2
20260506205003 14 92 0.0 12.9 0.00 0.00 0.00 73 1021.2
20260506204504 14 265 4.8 11.3 0.00 0.00 0.00 73 1021.1
20260506204005 14 142 3.2 8.0 0.00 0.00 0.00 73 1021.1
20260506203504 14 115 1.6 9.7 0.00 0.00 0.00 73 1021.2
20260506203009 13 178 3.2 11.3 0.00 0.00 0.00 74 1021.2
20260506202504 13 153 0.0 11.3 0.00 0.00 0.00 76 1021.1
20260506202004 13 298 1.6 8.0 0.00 0.00 0.00 77 1021.1
20260506201512 13 338 1.6 16.1 0.00 0.00 0.00 77 1021.1
20260506201005 13 240 3.2 16.1 0.00 0.00 0.00 77 1021.2
20260506200505 13 209 3.2 8.0 0.00 0.00 0.00 77 1021.1
20260506200024 13 198 1.6 8.0 0.00 0.00 0.00 78 1021.1
20260506195506 13 219 0.0 4.8 0.00 0.00 0.00 79 1021.1
20260506195009 13 219 3.2 11.3 0.00 0.00 0.00 80 1021.0
20260506194518 13 118 0.0 11.3 0.00 0.00 0.00 81 1021.0
20260506194008 13 150 4.8 11.3 0.00 0.00 0.00 80 1021.0
20260506193502 12 261 1.6 9.7 0.00 0.00 0.00 82 1021.0
20260506193006 12 175 1.6 9.7 0.00 0.00 0.00 82 1021.0
20260506192504 12 137 0.0 4.8 0.00 0.00 0.00 83 1021.0
20260506192004 12 161 1.6 9.7 0.00 0.00 0.00 84 1021.0
20260506191510 12 210 1.6 9.7 0.00 0.00 0.00 84 1020.9
20260506191004 12 157 1.6 6.4 0.00 0.00 0.00 85 1020.9
20260506190505 12 175 3.2 6.4 0.00 0.00 0.00 85 1020.9
20260506190012 12 172 0.0 6.4 0.00 0.00 0.00 88 1020.8
20260506185505 12 148 0.0 6.4 0.00 0.00 0.00 88 1020.9
20260506185004 12 196 1.6 8.0 0.00 0.00 0.00 89 1020.9
20260506184517 12 319 0.0 9.7 0.00 0.00 0.00 89 1020.9
20260506184007 12 125 1.6 9.7 0.00 0.00 0.00 90 1020.9
20260506183509 12 219 0.0 4.8 0.00 0.00 0.00 90 1021.0
20260506183022 12 313 1.6 3.2 0.00 0.00 0.00 89 1020.9
20260506182506 12 171 0.0 3.2 0.00 0.00 0.00 90 1020.9
20260506182006 12 137 0.0 8.0 0.00 0.00 0.00 90 1020.8
20260506181506 11 93 0.0 11.3 0.00 0.00 0.00 90 1020.9
20260506181004 11 147 1.6 11.3 0.00 0.00 0.00 90 1020.9
20260506180506 11 204 1.6 6.4 0.00 0.00 0.00 90 1020.9
20260506180012 11 255 1.6 8.0 0.00 0.00 0.00 90 1020.7
20260506175504 11 270 0.0 8.0 0.00 0.00 0.00 91 1020.6
20260506175004 11 203 1.6 11.3 0.00 0.00 0.00 91 1020.4
20260506174513 11 161 3.2 11.3 0.00 0.00 0.00 90 1020.5
20260506174005 12 171 1.6 6.4 0.00 0.00 0.00 90 1020.5
20260506173508 12 173 1.6 6.4 0.00 0.00 0.00 90 1020.5
20260506173019 12 168 0.0 6.4 0.00 0.00 0.00 90 1020.6
20260506172509 12 124 3.2 6.4 0.00 0.00 0.00 89 1020.6
20260506172006 12 188 0.0 6.4 0.00 0.00 0.00 89 1020.9
20260506171522 12 216 1.6 6.4 0.00 0.00 0.00 89 1020.6
20260506171008 12 188 0.0 4.8 0.00 0.00 0.00 88 1020.6
20260506170504 12 311 0.0 4.8 0.00 0.00 0.00 88 1020.8
20260506170011 12 166 1.6 4.8 0.00 0.00 0.00 87 1020.7
20260506165504 12 243 0.0 3.2 0.00 0.00 0.00 86 1020.6
20260506165005 12 259 0.0 4.8 0.00 0.00 0.00 86 1020.6
20260506164514 12 164 0.0 9.7 0.00 0.00 0.00 86 1020.4
20260506164009 12 286 3.2 9.7 0.00 0.00 0.00 86 1020.5
20260506163508 12 194 1.6 3.2 0.00 0.00 0.00 87 1020.6
20260506163031 12 223 0.0 9.7 0.00 0.00 0.00 87 1020.4
20260506162506 12 215 3.2 9.7 0.00 0.00 0.00 87 1020.3
20260506162008 12 165 0.0 6.4 0.00 0.00 0.00 88 1020.3
20260506161522 11 199 1.6 8.0 0.00 0.00 0.00 88 1020.2
20260506161009 11 246 1.6 9.7 0.00 0.00 0.00 90 1020.3
20260506160514 11 128 1.6 9.7 0.00 0.00 0.00 91 1020.2
20260506160023 11 221 1.6 8.0 0.00 0.00 0.00 91 1020.0
20260506155507 11 224 0.0 6.4 0.00 0.00 0.00 91 1020.1
20260506155007 11 112 1.6 9.7 0.00 0.00 0.00 91 1020.0
20260506154511 11 226 3.2 14.5 0.00 0.00 0.00 91 1020.1
20260506154010 11 137 1.6 14.5 0.00 0.00 0.00 90 1020.2
20260506153507 11 156 4.8 9.7 0.00 0.00 0.00 91 1020.2
20260506153015 11 148 3.2 9.7 0.00 0.00 0.00 91 1020.3
20260506152506 11 147 3.2 8.0 0.00 0.00 0.00 91 1020.4
20260506152009 11 169 1.6 4.8 0.00 0.00 0.00 92 1020.4
20260506151518 11 211 0.0 8.0 0.00 0.00 0.00 92 1020.4
20260506151008 11 207 0.0 8.0 0.00 0.00 0.00 92 1020.3
20260506150507 11 250 0.0 6.4 0.00 0.00 0.00 92 1020.2
20260506150023 11 181 1.6 8.0 0.00 0.00 0.00 92 1020.1
20260506145508 11 186 3.2 8.0 0.00 0.00 0.00 91 1020.0
20260506145006 11 117 3.2 8.0 0.00 0.00 0.00 91 1020.0
20260506144525 11 188 1.6 6.4 0.00 0.00 0.00 91 1020.1
20260506144010 11 187 3.2 8.0 0.00 0.00 0.00 91 1020.1
20260506143506 11 204 1.6 8.0 0.00 0.00 0.00 91 1020.1
20260506143017 11 216 0.0 3.2 0.00 0.00 0.00 90 1020.2
20260506142506 11 215 1.6 3.2 0.00 0.00 0.00 90 1020.1
20260506142009 11 202 1.6 4.8 0.00 0.00 0.00 90 1020.0
20260506141518 11 242 0.0 4.8 0.00 0.00 0.00 89 1020.1
20260506141008 11 301 0.0 4.8 0.00 0.00 0.00 89 1020.0
20260506140515 11 279 0.0 4.8 0.00 0.00 0.00 89 1019.8
20260506140024 11 210 0.0 3.2 0.00 0.00 0.00 89 1019.8
20260506135507 11 189 0.0 4.8 0.00 0.00 0.00 89 1019.8
20260506135006 11 174 0.0 4.8 0.00 0.00 0.00 89 1019.9
20260506134525 11 224 0.0 3.2 0.00 0.00 0.00 89 1020.0
20260506134013 11 244 0.0 8.0 0.00 0.00 0.00 89 1019.8
20260506133509 11 265 0.0 9.7 0.00 0.00 0.00 89 1019.7
20260506133024 11 148 3.2 9.7 0.00 0.00 0.00 89 1019.7
20260506132506 11 248 0.0 8.0 0.00 0.00 0.00 89 1019.8
20260506132007 11 210 1.6 8.0 0.00 0.00 0.00 89 1019.6
20260506131518 11 153 0.0 3.2 0.00 0.00 0.00 89 1019.7
20260506131008 11 231 1.6 3.2 0.00 0.00 0.00 89 1019.6
20260506130506 11 317 1.6 9.7 0.00 0.00 0.00 89 1019.7
20260506130006 11 190 1.6 12.9 0.00 0.00 0.00 89 1019.4
20260506125502 11 188 3.2 12.9 0.00 0.00 0.00 88 1019.1
20260506125005 11 191 3.2 6.4 0.00 0.00 0.00 88 1019.3
20260506124504 11 177 0.0 6.4 0.00 0.00 0.00 88 1019.4
20260506123505 11 171 3.2 8.0 0.00 0.00 0.00 88 1019.3
20260506123010 11 161 1.6 8.0 0.00 0.00 0.00 88 1019.3
20260506122507 11 106 0.0 9.7 0.00 0.00 0.00 88 1019.2
20260506122003 11 196 3.2 9.7 0.00 0.00 0.00 88 1019.2
20260506121512 11 273 3.2 11.3 0.00 0.00 0.00 88 1019.2
20260506121006 11 182 3.2 11.3 0.00 0.00 0.00 88 1019.1
20260506120511 11 184 1.6 6.4 0.00 0.00 0.00 88 1019.2
20260506120020 11 168 0.0 3.2 0.00 0.00 0.00 88 1019.1
20260506115507 11 168 0.0 8.0 0.00 0.00 0.00 88 1019.2
20260506115004 11 240 0.0 8.0 0.00 0.00 0.00 88 1019.2
20260506114503 11 175 1.6 8.0 0.00 0.00 0.00 88 1019.1
20260506114004 11 211 1.6 8.0 0.00 0.00 0.00 88 1019.0
20260506113503 11 235 1.6 4.8 0.00 0.00 0.00 88 1019.0
20260506113014 11 205 0.0 3.2 0.00 0.00 0.00 88 1018.8
20260506112505 11 202 1.6 3.2 0.00 0.00 0.00 88 1018.8
20260506112004 11 229 0.0 8.0 0.00 0.00 0.00 88 1018.7
20260506111509 11 260 1.6 6.4 0.00 0.00 0.00 88 1018.8
20260506111004 11 215 1.6 4.8 0.00 0.00 0.00 88 1018.7
20260506110504 11 141 1.6 4.8 0.00 0.00 0.00 88 1018.7
20260506110016 11 195 0.0 3.2 0.00 0.00 0.00 88 1018.7
20260506105512 11 219 1.6 3.2 0.00 0.00 0.00 88 1018.6
20260506105007 11 302 1.6 4.8 0.00 0.00 0.00 88 1018.5
20260506104544 11 199 1.6 4.8 0.00 0.00 0.00 88 1018.5
20260506103503 11 103 1.6 6.4 0.00 0.00 0.00 88 1018.5
20260506103004 11 169 0.0 6.4 0.00 0.00 0.00 88 1018.4
20260506102504 11 254 0.0 3.2 0.00 0.00 0.00 88 1018.3
20260506102004 11 254 0.0 3.2 0.00 0.00 0.00 88 1018.4
20260506101510 11 233 0.0 6.4 0.00 0.00 0.00 88 1018.4
20260506101008 11 176 1.6 6.4 0.00 0.00 0.00 88 1018.4
20260506100504 11 216 1.6 6.4 0.00 0.00 0.00 88 1018.3
20260506100013 11 228 1.6 4.8 0.00 0.00 0.00 89 1018.3
20260506095504 11 256 0.0 3.2 0.00 0.00 0.00 89 1018.3
20260506095005 11 221 0.0 3.2 0.00 0.00 0.00 89 1018.1
20260506094007 11 181 0.0 4.8 0.00 0.00 0.00 90 1018.0
20260506092507 11 193 0.0 3.2 0.00 0.00 0.00 90 1018.0
20260506092004 11 184 0.0 3.2 0.00 0.00 0.00 90 1017.9
20260506091508 11 252 0.0 3.2 0.00 0.00 0.00 90 1017.9
20260506091003 11 239 0.0 3.2 0.00 0.00 0.00 89 1017.8
20260506090504 11 244 0.0 6.4 0.00 0.00 0.00 89 1017.8
20260506090011 11 172 0.0 6.4 0.00 0.00 0.00 89 1017.8
20260506085505 11 221 0.0 3.2 0.00 0.00 0.00 89 1017.7
20260506084517 11 259 0.0 3.2 0.00 0.00 0.00 89 1017.6
20260506083507 11 212 0.0 3.2 0.00 0.00 0.00 89 1017.4
20260506083019 11 212 0.0 3.2 0.00 0.00 0.00 89 1017.3
20260506082511 11 212 0.0 3.2 0.00 0.00 0.00 89 1017.3
20260506081524 11 186 0.0 3.2 0.00 0.00 0.00 89 1017.3
20260506080504 11 186 0.0 3.2 0.00 0.00 0.00 89 1017.2
20260506073510 12 220 0.0 3.2 0.00 0.00 0.00 88 1017.1
20260506073018 12 220 0.0 3.2 0.00 0.00 0.00 88 1017.1
20260506071524 12 220 0.0 0.0 0.00 0.00 0.00 87 1017.1
20260506070507 12 220 0.0 0.0 0.00 0.00 0.00 86 1017.1
20260506062011 12 293 0.0 4.8 0.00 0.00 0.00 86 1016.8
20260506061520 12 219 0.0 0.0 0.00 0.00 0.00 86 1016.8
20260506061007 12 219 0.0 3.2 0.00 0.00 0.00 86 1016.7